SCP
2 2 3 2 2 2 2 2 2 2 2 1 1 1 1 1 1 2 2 3 4 4 3 3 2 2 2 2 1 1 2 2 1 1 1 1 1 1 1 1 1 1 1
2 2 3 3 3 3 3 3 2 2 2 2 2 2 1 1 1 2 2 3 3 3 3 3 3 3 2 2 2 2 2 2 1 1 1 1 1 1 1 1 1 1 1
3 3 4 4 4 4 4 4 3 3 3 3 2 2 2 2 2 2 2 3 3 3 3 3 3 3 3 3 2 2 2 2 2 1 1 1 1 1 1 1 1 1 1
5 5 5 6 5 5 5 4 4 4 4 3 3 3 3 3 3 3 3 3 3 3 3 3 3 4 4 4 3 3 2 2 2 2 1 1 1 1 1 1 1 1 1
7 7 7 7 7 6 5 5 5 5 5 4 3 3 3 4 4 4 3 3 3 3 3 3 3 4 4 4 4 3 3 2 2 2 2 1 1 1 1 1 1 1 1
10 9 9 8 8 7 7 6 6 6 6 5 5 4 4 4 5 5 5 4 3 3 3 3 3 3 4 4 4 4 3 3 2 2 2 2 2 1 1 1 1 1 1
14 13 11 10 9 9 9 9 9 8 8 7 6 5 5 4 5 5 5 4 3 3 3 3 3 3 3 3 3 3 3 3 3 3 3 2 2 1 1 1 1 1 1
17 15 13 12 10 9 10 11 11 9 8 7 6 5 5 4 4 4 3 3 2 2 2 2 2 2 2 2 2 3 3 4 4 3 3 3 2 2 1 1 1 1 1
15 14 13 12 10 10 11 12 11 9 7 5 5 4 4 3 3 3 2 2 1 1 1 1 2 2 2 2 2 2 3 3 3 3 3 3 2 1 1 1 1 1 1
10 10 11 10 9 9 10 11 10 8 5 4 4 3 3 2 2 2 2 1 1 1 1 1 1 1 1 1 1 1 2 2 2 2 2 2 1 1 1 1 1 1 1
5 6 7 6 6 7 7 7 6 5 4 4 4 3 2 2 2 1 1 1 1 1 1 1 1 1 1 1 1 1 1 1 1 1 1 1 1 1 1 1 1 1 1
4 4 4 4 4 4 4 3 3 3 4 4 4 3 3 2 1 1 1 0 0 1 1 0 0 0 0 0 0 0 0 0 0 0 0 0 0 0 0 0 1 0 0
3 3 3 3 4 3 3 2 2 2 3 4 4 4 3 2 1 1 0 0 0 0 0 0 0 0 0 0 0 0 0 0 0 0 0 0 0 0 0 0 0 0 0
2 2 2 3 3 2 2 2 2 1 2 2 3 3 2 1 1 0 0 0 0 0 0 0 0 0 0 0 0 0 0 0 0 0 0 0 0 0 0 0 0 0 0
1 1 1 1 1 1 1 1 1 1 1 1 1 1 1 1 0 0 0 0 0 0 0 0 0 0 0 0 0 0 0 0 0 0 0 0 0 0 0 0 0 0 0
0 0 0 0 0 0 0 0 0 0 0 0 0 0 0 0 0 0 0 0 0 0 0 0 0 0 0 0 0 0 0 0 0 0 0 0 0 0 0 0 0 0 0
0 0 0 0 0 0 0 0 0 0 0 0 0 0 0 0 0 0 0 0 0 0 0 0 0 0 0 0 0 0 0 0 0 0 0 0 0 0 0 0 0 0 0
0 0 0 0 0 0 0 0 0 0 0 0 0 0 0 0 0 0 0 0 0 0 0 0 0 0 0 0 0 0 0 0 0 0 0 0 0 0 0 0 0 0 0
0 0 0 0 0 0 0 0 0 0 0 0 0 0 0 0 0 0 0 0 0 0 0 0 0 0 0 0 0 0 0 0 0 0 0 0 0 0 0 0 0 0 0
0 0 0 0 0 0 0 0 0 0 0 0 0 0 0 0 0 0 0 0 0 0 0 0 0 0 0 0 0 0 0 0 0 0 0 0 0 0 0 0 0 0 0
0 0 0 0 0 0 0 0 0 0 0 0 0 0 0 0 0 0 0 0 0 0 0 0 0 0 0 0 0 0 0 0 0 0 0 0 0 0 0 0 0 0 0
0 0 0 0 0 0 0 0 0 0 0 0 0 0 0 0 0 0 0 0 0 0 0 0 0 0 0 0 0 0 0 0 0 0 0 0 0 0 0 0 0 0 0
0 0 0 0 0 0 0 0 0 0 0 0 0 0 0 0 0 0 0 0 0 0 0 0 0 0 0 0 0 0 0 0 0 0 0 0 0 0 0 0 0 0 0
0 0 0 0 0 0 0 0 0 0 0 0 0 0 0 0 0 0 0 0 0 0 0 0 0 0 0 0 0 0 0 0 0 0 0 0 0 0 0 0 0 0 0
0 0 0 0 0 0 0 0 0 0 0 0 0 0 0 0 0 0 0 0 0 0 0 0 0 0 0 0 0 0 0 0 0 0 0 0 0 0 0 0 0 0 0
0 0 0 0 0 0 0 0 0 0 0 0 0 0 0 0 0 0 0 0 0 0 0 0 0 0 0 0 0 0 0 0 0 0 0 0 0 0 0 0 0 0 0
Wind_Speed
3 3 3 3 4 4 5 4 4 3 3 3 3 4 3 2 1 2 3 7 8 9 10 10 10 9 9 9 9 9 9 8 8 8 7 7 7 6 5 5 4 4 4
3 2 2 2 1 1 1 2 2 2 1 2 3 3 2 2 0 1 4 4 5 7 8 8 9 9 10 10 9 9 9 9 8 8 7 7 7 6 6 6 5 5 4
3 3 1 2 1 1 1 0 2 1 2 2 2 3 2 2 2 0 2 3 3 6 7 7 7 8 9 9 9 9 9 9 8 8 7 7 7 6 6 6 6 5 4
2 2 1 1 1 1 1 1 1 1 2 2 2 2 2 1 2 1 0 1 2 3 4 5 6 6 6 6 6 6 7 7 7 7 7 7 7 7 6 6 6 6 5
2 2 1 1 1 1 0 1 1 1 1 2 2 2 2 1 1 2 1 1 1 1 2 3 4 4 4 4 3 3 4 4 5 6 7 7 7 7 7 7 7 6 6
2 2 1 1 1 1 0 1 1 0 1 1 3 3 2 1 1 1 2 2 2 2 2 3 2 2 3 3 2 2 1 2 3 4 5 6 5 6 7 7 8 7 7
3 3 1 1 1 1 1 1 1 0 1 1 2 2 2 1 1 1 1 2 3 4 3 3 2 2 2 3 3 2 1 1 0 0 1 1 2 3 5 6 8 9 9
3 2 2 2 1 2 3 2 1 1 1 1 1 1 1 0 0 1 2 2 3 3 4 3 3 3 2 2 4 6 6 5 3 2 2 2 2 3 4 5 6 7 8
6 5 5 4 4 4 3 3 3 2 1 1 0 1 1 1 1 1 2 3 3 3 3 3 4 4 4 4 3 6 7 7 6 5 4 4 4 5 5 6 7 8 8
8 8 7 6 5 5 4 4 4 2 2 1 1 1 1 2 1 1 1 2 2 2 2 3 3 3 4 4 5 7 8 7 7 7 7 7 6 6 7 7 8 8 9
9 9 8 7 7 6 6 6 6 6 5 4 3 2 2 2 2 1 1 1 1 1 1 1 1 2 3 3 3 5 6 5 5 5 7 7 8 8 8 8 9 10 10
8 9 9 7 8 7 7 6 6 7 6 5 4 4 3 2 2 2 1 1 1 1 1 1 1 1 1 2 4 4 2 1 1 3 5 7 8 9 10 11 11 11 12
7 8 8 7 7 7 7 6 7 7 7 6 5 4 3 3 2 2 2 2 2 1 1 1 1 1 1 2 2 0 2 2 3 3 5 7 8 9 10 11 12 12 13
8 8 8 8 8 8 7 6 6 6 6 6 7 5 4 4 3 3 2 2 3 2 1 1 0 0 1 1 1 2 2 3 4 5 7 8 9 10 11 11 11 12 13
8 9 9 9 9 8 8 7 6 6 6 6 6 6 4 4 4 3 3 2 2 3 3 2 1 1 1 1 1 2 2 5 6 8 9 9 9 10 11 11 12 12 12
8 8 8 8 8 8 7 6 5 6 6 5 3 5 4 3 3 3 3 3 2 2 3 3 2 2 2 4 4 3 4 8 8 10 10 10 10 11 11 12 12 12 13
7 7 7 7 7 7 6 5 5 6 6 5 5 5 5 4 4 3 4 3 3 3 3 4 3 3 3 3 3 3 5 5 4 7 8 9 11 11 12 12 12 12 12
6 6 6 6 7 6 6 6 6 6 5 5 5 5 5 4 4 4 4 3 3 3 3 4 4 4 4 4 3 4 5 5 4 8 7 9 11 11 12 12 11 11 11
6 6 6 6 7 7 7 6 6 5 5 4 4 4 4 5 5 4 4 4 4 4 3 3 4 3 3 4 4 5 6 4 6 7 6 6 9 11 12 12 12 11 10
6 6 6 7 8 9 9 9 7 5 5 4 4 4 4 5 5 6 5 5 5 5 5 4 4 3 3 4 3 4 5 4 5 6 5 6 7 10 12 12 11 11 9
6 6 6 7 7 8 9 10 9 6 4 4 3 3 3 4 3 3 4 5 5 5 5 5 5 4 4 5 4 4 5 5 5 3 3 5 4 3 4 7 8 8 8
5 5 6 7 8 8 8 11 9 8 6 4 4 4 2 3 2 3 5 7 6 5 5 5 5 5 6 5 4 5 5 5 4 3 4 5 4 3 3 2 4 7 8
4 5 6 7 7 6 8 10 12 8 6 3 3 4 5 5 6 7 8 8 7 7 8 5 5 6 6 5 5 6 6 6 6 5 4 5 4 4 4 2 4 7 8
4 4 5 5 5 6 8 10 14 8 4 3 2 2 3 4 6 7 8 7 6 5 5 4 4 5 6 5 5 6 7 7 6 4 3 4 4 4 4 1 5 8 9
3 3 4 4 5 4 6 9 12 6 3 4 3 4 4 4 5 7 7 7 7 6 6 6 7 9 11 12 8 4 5 5 6 4 2 2 3 4 4 2 3 7 9
3 3 4 4 4 4 3 7 10 6 6 5 3 2 3 3 6 7 6 6 7 7 8 9 7 8 7 7 8 6 4 4 5 4 2 2 3 3 4 3 2 2 4
Wind_Direction
201 184 178 168 193 192 186 196 217 231 226 240 253 251 267 281 309 88 131 163 173 183 189 197 204 208 212 214 216 216 216 218 216 212 210 209 206 200 195 192 193 193 193
181 176 171 161 230 267 151 187 228 242 253 280 284 289 282 298 315 149 135 163 184 194 195 199 204 210 213 213 213 215 216 218 218 215 211 206 200 196 194 194 189 185 182
166 159 173 151 200 249 98 30 303 306 264 266 294 311 314 325 320 355 141 151 178 199 196 199 206 213 214 214 215 216 217 217 214 212 209 201 195 195 195 192 190 185 182
157 155 164 166 175 189 111 172 302 310 303 301 295 296 294 292 290 300 139 152 178 180 182 191 197 194 195 204 210 214 215 213 210 210 207 202 197 196 195 193 194 192 191
163 150 166 158 136 123 110 254 167 261 301 308 294 269 277 298 316 308 311 31 72 110 136 162 177 176 181 181 190 203 211 212 213 216 218 216 211 207 206 204 203 201 202
106 121 146 105 100 110 84 10 358 357 340 312 298 302 317 333 16 3 356 17 25 58 91 119 147 139 123 124 128 152 199 227 226 227 229 227 220 214 213 213 211 211 214
85 99 113 108 99 92 67 46 347 337 350 345 309 301 301 347 7 17 30 25 26 33 44 71 84 94 104 102 91 88 86 82 30 288 283 266 240 226 223 225 225 224 225
65 86 71 66 67 63 49 39 20 13 34 31 332 303 293 296 288 55 48 45 37 36 36 40 65 67 65 94 79 77 60 42 17 342 329 322 303 265 248 241 242 241 239
59 56 63 59 55 65 64 47 33 29 16 18 52 275 280 276 312 83 64 53 46 40 32 33 48 52 53 74 78 61 56 39 21 11 5 352 332 308 285 265 258 258 258
61 60 61 63 61 57 58 53 48 38 44 23 25 24 24 27 342 14 50 39 41 55 43 34 38 40 57 75 81 74 62 45 24 4 355 344 336 321 304 295 284 276 272
57 56 58 62 63 57 52 53 51 51 51 42 31 16 14 19 17 18 358 359 3 30 45 65 68 56 63 86 94 77 69 55 32 2 350 342 336 323 311 304 297 290 286
58 56 59 60 62 60 52 50 52 55 55 56 49 36 26 26 20 12 351 333 341 316 304 70 86 82 84 82 97 94 77 72 10 334 328 326 323 316 313 308 304 303 296
61 54 58 58 58 58 58 55 56 52 49 52 50 41 33 36 22 7 7 346 324 304 6 43 76 81 77 90 109 124 271 242 239 260 284 296 302 302 303 303 304 304 303
64 59 58 58 55 52 52 53 57 51 48 46 48 38 25 27 19 24 15 354 338 334 0 18 51 90 67 85 133 270 296 275 253 248 256 268 279 286 289 291 293 294 296
70 64 62 59 55 52 49 55 60 53 50 44 43 41 26 18 14 11 11 1 350 338 339 3 7 27 33 50 210 287 302 288 261 249 254 255 263 272 278 282 284 285 285
70 68 65 62 58 54 47 51 58 50 53 43 39 45 33 19 6 360 355 352 356 345 340 340 352 13 6 336 332 330 303 294 278 261 258 254 255 259 266 275 281 283 284
74 72 68 67 63 57 50 47 51 49 46 38 27 28 23 23 15 358 359 359 5 4 343 332 338 336 338 327 323 310 292 282 280 279 266 250 248 252 259 267 273 277 281
75 72 69 68 65 58 45 43 43 43 41 40 31 18 10 15 12 9 354 354 354 343 339 327 319 320 323 318 316 303 307 315 314 294 271 251 248 251 255 260 264 267 270
72 69 66 63 58 51 38 31 34 35 35 35 26 14 10 17 15 4 343 356 346 345 324 311 307 314 314 325 331 318 314 313 309 310 296 273 257 257 257 256 259 262 263
70 64 61 60 57 46 31 18 11 21 25 25 22 15 23 31 24 356 347 3 350 339 331 321 318 320 319 334 336 323 318 317 312 313 317 302 279 266 258 257 258 260 259
72 65 63 61 63 56 29 15 354 1 5 8 10 12 32 67 50 349 355 348 340 334 327 328 324 327 335 340 335 323 320 315 306 306 313 306 300 287 273 256 252 250 250
62 61 63 63 57 49 23 13 4 343 341 1 8 1 3 101 3 331 315 304 295 305 321 321 320 331 329 331 330 324 322 324 317 317 321 307 304 300 287 258 226 226 236
63 61 66 77 75 51 16 3 357 330 321 349 3 358 1 33 28 2 338 318 298 271 254 271 297 306 312 323 326 321 318 313 300 296 304 299 303 302 299 291 208 225 238
54 62 68 79 84 56 17 3 347 321 317 343 355 8 15 41 31 358 332 329 323 319 286 258 273 287 300 308 307 299 295 295 290 288 298 293 303 307 306 259 226 236 246
48 64 68 73 88 76 22 2 349 320 346 357 1 29 19 35 25 353 332 331 331 332 334 318 283 278 282 282 277 289 297 308 313 313 328 300 306 311 298 274 242 235 250
41 52 65 67 75 78 36 1 353 344 358 353 357 60 75 10 345 341 331 326 324 329 329 317 303 292 280 272 258 238 265 297 310 311 333 323 312 326 315 310 313 278 259